• în România
  • Lista ţărilor
  • Pe 7 zile
  • Temperatura apei
  • Hartă satelitară
  • Meteo pe hartă
  • Widget-uri
  • user-avatar
    Intrare

    Meteo pe oră la Quito

    Astăzi, 26 Martie, Duminică

    Timp Temperatura Precipitaţii Vânt Presiune Umiditate
    00:00 +15°C° 0 mm 1 m/s 621 mmHg 87%
    01:00 +16°C° 0 mm 1 m/s 622 mmHg 90%
    02:00 +15°C° 0 mm 1 m/s 621 mmHg 91%
    03:00 +15°C° 0 mm 1 m/s 621 mmHg 92%
    04:00 +14°C° 0 mm 0 m/s 621 mmHg 93%
    05:00 +16°C° 0 mm 1 m/s 622 mmHg 91%
    06:00 +18°C° 0 mm 1 m/s 623 mmHg 89%
    07:00 +19°C° 0 mm 1 m/s 624 mmHg 86%
    08:00 +21°C° 0,3 mm 1 m/s 624 mmHg 79%
    09:00 +23°C° 0,3 mm 1 m/s 625 mmHg 73%
    10:00 +25°C° 0,3 mm 1 m/s 626 mmHg 67%
    11:00 +25°C° 1,4 mm 1 m/s 625 mmHg 69%
    12:00 +25°C° 1,4 mm 1 m/s 624 mmHg 72%
    13:00 +25°C° 1,4 mm 2 m/s 624 mmHg 75%
    14:00 +24°C° 0,9 mm 1 m/s 623 mmHg 77%
    15:00 +24°C° 0,9 mm 1 m/s 623 mmHg 79%
    16:00 +23°C° 0,9 mm 1 m/s 622 mmHg 80%
    17:00 +22°C° 0,3 mm 1 m/s 622 mmHg 85%
    18:00 +20°C° 0,3 mm 1 m/s 622 mmHg 90%
    19:00 +16°C° 0,3 mm 0 m/s 621 mmHg 95%
    20:00 +16°C° 0,3 mm 0 m/s 622 mmHg 95%
    21:00 +18°C° 0,3 mm 1 m/s 622 mmHg 95%
    22:00 +18°C° 0,3 mm 1 m/s 623 mmHg 95%
    23:00 +18°C° 1,5 mm 1 m/s 622 mmHg 96%

    Mâine, 27 Martie, Luni

    Timp Temperatura Precipitaţii Vânt Presiune Umiditate
    00:00 +18°C° 1,5 mm 1 m/s 622 mmHg 96%
    01:00 +17°C° 1,5 mm 2 m/s 622 mmHg 96%
    02:00 +17°C° 0,6 mm 2 m/s 622 mmHg 97%
    03:00 +16°C° 0,6 mm 2 m/s 622 mmHg 98%
    04:00 +16°C° 0,6 mm 2 m/s 622 mmHg 99%
    05:00 +16°C° 0,4 mm 2 m/s 622 mmHg 98%
    06:00 +18°C° 0,4 mm 1 m/s 623 mmHg 98%
    07:00 +18°C° 0,4 mm 1 m/s 623 mmHg 98%
    08:00 +17°C° 1,1 mm 2 m/s 624 mmHg 97%
    09:00 +18°C° 1,1 mm 2 m/s 624 mmHg 95%
    10:00 +18°C° 1,1 mm 2 m/s 624 mmHg 94%
    11:00 +19°C° 0,8 mm 2 m/s 624 mmHg 92%
    12:00 +19°C° 0,8 mm 2 m/s 624 mmHg 90%
    13:00 +20°C° 0,8 mm 2 m/s 623 mmHg 88%
    14:00 +20°C° 0,4 mm 2 m/s 623 mmHg 88%
    15:00 +20°C° 0,4 mm 2 m/s 623 mmHg 88%
    16:00 +20°C° 0,4 mm 2 m/s 622 mmHg 88%
    17:00 +20°C° 0,2 mm 1 m/s 622 mmHg 91%
    18:00 +19°C° 0,2 mm 1 m/s 622 mmHg 95%
    19:00 +18°C° 0,2 mm 1 m/s 622 mmHg 98%
    20:00 +18°C° 0,2 mm 1 m/s 623 mmHg 98%
    21:00 +18°C° 0,2 mm 1 m/s 623 mmHg 98%
    22:00 +18°C° 0,2 mm 1 m/s 624 mmHg 98%
    23:00 +16°C° 0 mm 1 m/s 623 mmHg 98%

    Poimâine, 28 Martie, Marţi

    Timp Temperatura Precipitaţii Vânt Presiune Umiditate
    00:00 +16°C° 0 mm 1 m/s 623 mmHg 98%
    01:00 +14°C° 0 mm 0 m/s 622 mmHg 97%
    02:00 +14°C° 0 mm 0 m/s 622 mmHg 97%
    03:00 +15°C° 0 mm 1 m/s 622 mmHg 96%
    04:00 +15°C° 0 mm 1 m/s 622 mmHg 95%
    05:00 +16°C° 0,1 mm 1 m/s 622 mmHg 95%
    06:00 +16°C° 0,1 mm 1 m/s 623 mmHg 95%
    07:00 +18°C° 0,1 mm 1 m/s 623 mmHg 95%
    08:00 +19°C° 0,2 mm 1 m/s 624 mmHg 89%
    09:00 +20°C° 0,2 mm 2 m/s 625 mmHg 83%
    10:00 +22°C° 0,2 mm 3 m/s 625 mmHg 77%
    11:00 +22°C° 0,3 mm 3 m/s 624 mmHg 76%
    12:00 +22°C° 0,3 mm 3 m/s 624 mmHg 76%
    13:00 +22°C° 0,3 mm 3 m/s 623 mmHg 76%
    14:00 +23°C° 0,2 mm 2 m/s 623 mmHg 74%
    15:00 +23°C° 0,2 mm 2 m/s 623 mmHg 73%
    16:00 +23°C° 0,2 mm 1 m/s 622 mmHg 72%
    17:00 +22°C° 0,1 mm 1 m/s 622 mmHg 79%
    18:00 +21°C° 0,1 mm 1 m/s 622 mmHg 85%
    19:00 +19°C° 0,1 mm 1 m/s 622 mmHg 92%
    20:00 +19°C° 0 mm 1 m/s 623 mmHg 93%
    21:00 +19°C° 0 mm 1 m/s 623 mmHg 94%
    22:00 +18°C° 0 mm 1 m/s 623 mmHg 96%
    23:00 +16°C° 0,6 mm 1 m/s 622 mmHg 96%

    29 Martie, Miercuri

    Timp Temperatura Precipitaţii Vânt Presiune Umiditate
    00:00 +16°C° 0,6 mm 1 m/s 622 mmHg 96%
    01:00 +15°C° 0,6 mm 1 m/s 621 mmHg 97%
    02:00 +15°C° 0,3 mm 1 m/s 621 mmHg 97%
    03:00 +15°C° 0,3 mm 1 m/s 621 mmHg 96%
    04:00 +15°C° 0,3 mm 1 m/s 621 mmHg 96%
    05:00 +15°C° 0 mm 1 m/s 621 mmHg 96%
    06:00 +16°C° 0 mm 1 m/s 622 mmHg 96%
    07:00 +18°C° 0 mm 1 m/s 623 mmHg 95%
    08:00 +19°C° 0,1 mm 2 m/s 623 mmHg 85%
    09:00 +21°C° 0,1 mm 3 m/s 624 mmHg 76%
    10:00 +23°C° 0,1 mm 4 m/s 625 mmHg 66%
    11:00 +25°C° 0,2 mm 4 m/s 624 mmHg 63%
    12:00 +25°C° 0,2 mm 4 m/s 624 mmHg 59%
    13:00 +26°C° 0,2 mm 3 m/s 623 mmHg 56%
    14:00 +26°C° 0,2 mm 3 m/s 623 mmHg 59%
    15:00 +25°C° 0,2 mm 3 m/s 622 mmHg 62%
    16:00 +25°C° 0,2 mm 3 m/s 621 mmHg 66%
    17:00 +23°C° 0,1 mm 2 m/s 621 mmHg 73%
    18:00 +20°C° 0,1 mm 2 m/s 621 mmHg 81%
    19:00 +18°C° 0,1 mm 2 m/s 621 mmHg 89%
    20:00 +18°C° 0,4 mm 2 m/s 621 mmHg 91%
    21:00 +17°C° 0,4 mm 2 m/s 622 mmHg 92%
    22:00 +17°C° 0,4 mm 2 m/s 622 mmHg 93%
    23:00 +16°C° 0,3 mm 2 m/s 622 mmHg 94%

    30 Martie, Joi

    Timp Temperatura Precipitaţii Vânt Presiune Umiditate
    00:00 +16°C° 0,3 mm 1 m/s 621 mmHg 94%
    01:00 +16°C° 0,3 mm 1 m/s 621 mmHg 95%
    02:00 +16°C° 0,2 mm 1 m/s 621 mmHg 95%
    03:00 +15°C° 0,2 mm 1 m/s 621 mmHg 96%
    04:00 +15°C° 0,2 mm 1 m/s 621 mmHg 97%
    05:00 +16°C° 0,1 mm 1 m/s 622 mmHg 95%
    06:00 +16°C° 0,1 mm 1 m/s 622 mmHg 94%
    07:00 +18°C° 0,1 mm 1 m/s 623 mmHg 93%
    08:00 +18°C° 0,3 mm 2 m/s 624 mmHg 88%
    09:00 +20°C° 0,3 mm 3 m/s 624 mmHg 83%
    10:00 +21°C° 0,3 mm 4 m/s 624 mmHg 79%
    11:00 +21°C° 0,2 mm 4 m/s 624 mmHg 77%
    12:00 +22°C° 0,2 mm 4 m/s 623 mmHg 75%
    13:00 +22°C° 0,2 mm 4 m/s 623 mmHg 73%
    14:00 +22°C° 0,2 mm 3 m/s 622 mmHg 75%
    15:00 +22°C° 0,2 mm 3 m/s 622 mmHg 77%
    16:00 +21°C° 0,2 mm 3 m/s 622 mmHg 79%
    17:00 +20°C° 0 mm 3 m/s 622 mmHg 85%
    18:00 +19°C° 0 mm 2 m/s 622 mmHg 90%
    19:00 +19°C° 0 mm 1 m/s 622 mmHg 96%
    20:00 +18°C° 0,3 mm 1 m/s 623 mmHg 96%
    21:00 +18°C° 0,3 mm 1 m/s 623 mmHg 97%
    22:00 +18°C° 0,3 mm 1 m/s 623 mmHg 97%
    23:00 +18°C° 0,9 mm 1 m/s 623 mmHg 97%

    31 Martie, Vineri

    Timp Temperatura Precipitaţii Vânt Presiune Umiditate
    00:00 +16°C° 0,9 mm 1 m/s 622 mmHg 98%
    01:00 +16°C° 0,9 mm 1 m/s 622 mmHg 98%
    02:00 +16°C° 0,7 mm 1 m/s 622 mmHg 98%
    03:00 +16°C° 0,7 mm 1 m/s 622 mmHg 98%
    04:00 +16°C° 0,7 mm 1 m/s 622 mmHg 98%
    05:00 +16°C° 1,8 mm 1 m/s 622 mmHg 98%
    06:00 +16°C° 1,8 mm 1 m/s 623 mmHg 97%
    07:00 +18°C° 1,8 mm 1 m/s 623 mmHg 97%
    08:00 +18°C° 2,2 mm 1 m/s 624 mmHg 96%
    09:00 +18°C° 2,2 mm 1 m/s 624 mmHg 95%
    10:00 +18°C° 2,2 mm 1 m/s 624 mmHg 95%
    11:00 +19°C° 0,6 mm 1 m/s 624 mmHg 92%
    12:00 +20°C° 0,6 mm 1 m/s 623 mmHg 89%
    13:00 +20°C° 0,6 mm 1 m/s 623 mmHg 87%
    14:00 +20°C° 1,9 mm 1 m/s 623 mmHg 88%
    15:00 +20°C° 1,9 mm 1 m/s 622 mmHg 90%
    16:00 +20°C° 1,9 mm 1 m/s 622 mmHg 92%
    17:00 +19°C° 1,6 mm 1 m/s 622 mmHg 93%
    18:00 +18°C° 1,6 mm 1 m/s 623 mmHg 95%
    19:00 +18°C° 1,6 mm 1 m/s 623 mmHg 97%
    20:00 +16°C° 0,5 mm 1 m/s 623 mmHg 97%
    21:00 +16°C° 0,5 mm 1 m/s 623 mmHg 97%
    22:00 +16°C° 0,5 mm 1 m/s 623 mmHg 97%
    23:00 +16°C° 0,1 mm 1 m/s 623 mmHg 97%
    Arată mai mult